| time (UTC) | temp F | wind direction | speed MPH | gust MPH | rain 1hr in | rain 24hr in | rain mn in | humidity % | barometer mb |
| 20260502210054 | 50 | 337 | 1.0 | 12.0 | 0.00 | 0.00 | 0.00 | 46 | 1010.7 |
| 20260502205553 | 50 | 0 | 4.0 | 12.0 | 0.00 | 0.00 | 0.00 | 46 | 1010.7 |
| 20260502205053 | 50 | 323 | 5.0 | 11.0 | 0.00 | 0.00 | 0.00 | 46 | 1010.6 |
| 20260502204555 | 50 | 315 | 3.0 | 11.0 | 0.00 | 0.00 | 0.00 | 47 | 1010.6 |
| 20260502204053 | 50 | 352 | 2.0 | 12.0 | 0.00 | 0.00 | 0.00 | 46 | 1010.7 |
| 20260502203553 | 50 | 327 | 4.0 | 13.0 | 0.00 | 0.00 | 0.00 | 45 | 1010.7 |
| 20260502203112 | 50 | 329 | 3.0 | 13.0 | 0.00 | 0.00 | 0.00 | 45 | 1010.7 |
| 20260502202553 | 50 | 327 | 2.0 | 12.0 | 0.00 | 0.00 | 0.00 | 46 | 1010.7 |
| 20260502202053 | 50 | 279 | 2.0 | 12.0 | 0.00 | 0.00 | 0.00 | 45 | 1010.7 |
| 20260502201601 | 51 | 288 | 3.0 | 11.0 | 0.00 | 0.00 | 0.00 | 45 | 1010.7 |
| 20260502201053 | 50 | 292 | 3.0 | 11.0 | 0.00 | 0.00 | 0.00 | 45 | 1010.7 |
| 20260502200554 | 50 | 327 | 2.0 | 9.0 | 0.00 | 0.00 | 0.00 | 45 | 1010.7 |
| 20260502200057 | 50 | 282 | 2.0 | 11.0 | 0.00 | 0.00 | 0.00 | 46 | 1010.7 |
| 20260502195555 | 50 | 305 | 1.0 | 11.0 | 0.00 | 0.00 | 0.00 | 46 | 1010.7 |
| 20260502195053 | 50 | 332 | 2.0 | 8.0 | 0.00 | 0.00 | 0.00 | 46 | 1010.7 |
| 20260502194557 | 50 | 15 | 1.0 | 5.0 | 0.00 | 0.00 | 0.00 | 48 | 1010.8 |
| 20260502194049 | 50 | 25 | 0.0 | 7.0 | 0.00 | 0.00 | 0.00 | 48 | 1010.8 |
| 20260502193551 | 50 | 36 | 1.0 | 7.0 | 0.00 | 0.00 | 0.00 | 47 | 1010.8 |
| 20260502193057 | 51 | 47 | 1.0 | 12.0 | 0.00 | 0.00 | 0.00 | 47 | 1010.8 |
| 20260502192552 | 51 | 15 | 2.0 | 12.0 | 0.00 | 0.00 | 0.00 | 47 | 1010.8 |
| 20260502192051 | 51 | 19 | 3.0 | 12.0 | 0.00 | 0.00 | 0.00 | 47 | 1010.8 |
| 20260502191554 | 51 | 355 | 0.0 | 5.0 | 0.00 | 0.00 | 0.00 | 46 | 1010.8 |
| 20260502191051 | 51 | 11 | 1.0 | 7.0 | 0.00 | 0.00 | 0.00 | 47 | 1010.8 |
| 20260502190553 | 51 | 0 | 2.0 | 7.0 | 0.00 | 0.00 | 0.00 | 47 | 1010.7 |
| 20260502190055 | 51 | 45 | 1.0 | 5.0 | 0.00 | 0.00 | 0.00 | 48 | 1010.7 |
| 20260502185552 | 50 | 0 | 1.0 | 5.0 | 0.00 | 0.00 | 0.00 | 48 | 1010.7 |
| 20260502185053 | 50 | 0 | 1.0 | 8.0 | 0.00 | 0.00 | 0.00 | 48 | 1010.7 |
| 20260502184553 | 50 | 40 | 2.0 | 9.0 | 0.00 | 0.00 | 0.00 | 49 | 1010.7 |
| 20260502184054 | 50 | 80 | 1.0 | 9.0 | 0.00 | 0.00 | 0.00 | 48 | 1010.7 |
| 20260502183553 | 51 | 0 | 3.0 | 8.0 | 0.00 | 0.00 | 0.00 | 49 | 1010.7 |
| 20260502183057 | 50 | 246 | 1.0 | 4.0 | 0.00 | 0.00 | 0.00 | 49 | 1010.6 |
| 20260502182554 | 51 | 20 | 1.0 | 9.0 | 0.00 | 0.00 | 0.00 | 49 | 1010.6 |
| 20260502182053 | 51 | 67 | 3.0 | 9.0 | 0.00 | 0.00 | 0.00 | 48 | 1010.6 |
| 20260502181552 | 51 | 32 | 2.0 | 7.0 | 0.00 | 0.00 | 0.00 | 49 | 1010.6 |
| 20260502181057 | 51 | 0 | 2.0 | 7.0 | 0.00 | 0.00 | 0.00 | 48 | 1010.5 |
| 20260502180552 | 50 | 294 | 2.0 | 8.0 | 0.00 | 0.00 | 0.00 | 47 | 1010.5 |
| 20260502164053 | 50 | 323 | 4.0 | 13.0 | 0.00 | 0.00 | 0.00 | 49 | 1010.7 |
| 20260502163553 | 50 | 0 | 1.0 | 6.0 | 0.00 | 0.00 | 0.00 | 49 | 1010.7 |
| 20260502163059 | 49 | 0 | 2.0 | 6.0 | 0.00 | 0.00 | 0.00 | 51 | 1010.7 |
| 20260502162553 | 49 | 0 | 0.0 | 4.0 | 0.00 | 0.00 | 0.00 | 51 | 1010.8 |
| 20260502162052 | 50 | 0 | 0.0 | 5.0 | 0.00 | 0.00 | 0.00 | 54 | 1010.8 |
| 20260502161556 | 50 | 348 | 0.0 | 5.0 | 0.00 | 0.00 | 0.00 | 54 | 1010.9 |
| 20260502161050 | 49 | 348 | 1.0 | 5.0 | 0.00 | 0.00 | 0.00 | 57 | 1010.8 |
| 20260502160550 | 50 | 0 | 1.0 | 5.0 | 0.00 | 0.00 | 0.00 | 57 | 1010.9 |
| 20260502152051 | 48 | 0 | 0.0 | 8.0 | 0.00 | 0.00 | 0.00 | 59 | 1011.3 |
| 20260502151612 | 49 | 311 | 2.0 | 8.0 | 0.00 | 0.00 | 0.00 | 60 | 1011.5 |
| 20260502151055 | 49 | 0 | 2.0 | 8.0 | 0.00 | 0.00 | 0.00 | 62 | 1011.5 |
| 20260502150553 | 48 | 335 | 3.0 | 8.0 | 0.00 | 0.00 | 0.00 | 64 | 1011.5 |
| 20260502150108 | 48 | 322 | 2.0 | 7.0 | 0.00 | 0.00 | 0.00 | 66 | 1011.5 |
| 20260502130550 | 44 | 296 | 0.0 | 3.0 | 0.00 | 0.00 | 0.00 | 76 | 1011.8 |
| 20260502123551 | 42 | 0 | 0.0 | 4.0 | 0.00 | 0.00 | 0.00 | 81 | 1011.7 |
| 20260502123056 | 42 | 0 | 0.0 | 5.0 | 0.00 | 0.00 | 0.00 | 81 | 1011.7 |
| 20260502122550 | 42 | 296 | 0.0 | 5.0 | 0.00 | 0.00 | 0.00 | 82 | 1011.6 |
| 20260502122050 | 41 | 295 | 1.0 | 5.0 | 0.00 | 0.00 | 0.00 | 82 | 1011.6 |
| 20260502121554 | 41 | 294 | 1.0 | 5.0 | 0.00 | 0.00 | 0.00 | 82 | 1011.7 |
| 20260502121053 | 41 | 294 | 1.0 | 4.0 | 0.00 | 0.00 | 0.00 | 83 | 1011.7 |
| 20260502120552 | 41 | 294 | 0.0 | 4.0 | 0.00 | 0.00 | 0.00 | 83 | 1011.7 |
| 20260502120107 | 41 | 0 | 0.0 | 4.0 | 0.00 | 0.00 | 0.00 | 83 | 1011.7 |
| 20260502115548 | 41 | 0 | 1.0 | 4.0 | 0.00 | 0.00 | 0.00 | 83 | 1011.6 |
| 20260502115051 | 41 | 0 | 0.0 | 4.0 | 0.00 | 0.00 | 0.00 | 83 | 1011.5 |
| 20260502114602 | 41 | 0 | 0.0 | 2.0 | 0.00 | 0.00 | 0.00 | 83 | 1011.4 |
| 20260502114051 | 41 | 0 | 0.0 | 3.0 | 0.00 | 0.00 | 0.00 | 83 | 1011.5 |
| 20260502113551 | 41 | 294 | 0.0 | 3.0 | 0.00 | 0.00 | 0.00 | 83 | 1011.4 |
| 20260502113057 | 41 | 294 | 0.0 | 2.0 | 0.00 | 0.00 | 0.00 | 83 | 1011.4 |
| 20260502112550 | 41 | 294 | 0.0 | 3.0 | 0.00 | 0.00 | 0.00 | 83 | 1011.5 |
| 20260502112048 | 41 | 294 | 0.0 | 4.0 | 0.00 | 0.00 | 0.00 | 83 | 1011.3 |
| 20260502111601 | 41 | 294 | 0.0 | 4.0 | 0.00 | 0.00 | 0.00 | 83 | 1011.2 |
| 20260502111052 | 41 | 294 | 0.0 | 3.0 | 0.00 | 0.00 | 0.00 | 83 | 1011.2 |
| 20260502110549 | 41 | 0 | 0.0 | 3.0 | 0.00 | 0.00 | 0.00 | 83 | 1011.2 |
| 20260502110057 | 41 | 0 | 0.0 | 2.0 | 0.00 | 0.00 | 0.00 | 83 | 1011.1 |
| 20260502105552 | 41 | 0 | 0.0 | 3.0 | 0.00 | 0.00 | 0.00 | 83 | 1010.9 |
| 20260502105049 | 41 | 0 | 0.0 | 4.0 | 0.00 | 0.00 | 0.00 | 83 | 1011.0 |
| 20260502104555 | 41 | 0 | 0.0 | 5.0 | 0.00 | 0.00 | 0.00 | 83 | 1010.8 |
| 20260502104050 | 41 | 294 | 0.0 | 5.0 | 0.00 | 0.00 | 0.00 | 83 | 1010.8 |
| 20260502103551 | 41 | 294 | 0.0 | 5.0 | 0.00 | 0.00 | 0.00 | 83 | 1010.8 |
| 20260502103108 | 41 | 294 | 0.0 | 4.0 | 0.00 | 0.00 | 0.00 | 82 | 1010.8 |
| 20260502102550 | 41 | 294 | 1.0 | 4.0 | 0.00 | 0.00 | 0.00 | 82 | 1010.8 |
| 20260502102054 | 41 | 294 | 0.0 | 4.0 | 0.00 | 0.00 | 0.00 | 82 | 1010.8 |
| 20260502101556 | 41 | 0 | 1.0 | 4.0 | 0.00 | 0.00 | 0.00 | 82 | 1010.7 |
| 20260502101052 | 41 | 294 | 1.0 | 4.0 | 0.00 | 0.00 | 0.00 | 82 | 1010.6 |
| 20260502100554 | 41 | 0 | 0.0 | 2.0 | 0.00 | 0.00 | 0.00 | 82 | 1010.6 |
| 20260502100113 | 41 | 0 | 0.0 | 3.0 | 0.00 | 0.00 | 0.00 | 82 | 1010.5 |
| 20260502091053 | 41 | 0 | 0.0 | 4.0 | 0.00 | 0.00 | 0.00 | 81 | 1010.4 |
| 20260502090551 | 41 | 0 | 0.0 | 5.0 | 0.00 | 0.00 | 0.00 | 80 | 1010.4 |
| 20260502071053 | 43 | 294 | 0.0 | 7.0 | 0.00 | 0.00 | 0.00 | 75 | 1010.5 |
| 20260502070552 | 43 | 294 | 0.0 | 7.0 | 0.00 | 0.00 | 0.00 | 75 | 1010.6 |
| 20260502070100 | 43 | 294 | 1.0 | 7.0 | 0.00 | 0.00 | 0.00 | 75 | 1010.6 |
| 20260502065549 | 43 | 294 | 0.0 | 4.0 | 0.00 | 0.00 | 0.00 | 74 | 1010.6 |
| 20260502065052 | 43 | 297 | 0.0 | 3.0 | 0.00 | 0.00 | 0.00 | 74 | 1010.5 |
| 20260502064607 | 43 | 0 | 0.0 | 4.0 | 0.00 | 0.00 | 0.00 | 74 | 1010.4 |
| 20260502064052 | 43 | 0 | 0.0 | 5.0 | 0.00 | 0.00 | 0.00 | 74 | 1010.5 |
| 20260502063551 | 43 | 297 | 0.0 | 5.0 | 0.00 | 0.00 | 0.00 | 74 | 1010.5 |
| 20260502063054 | 44 | 297 | 0.0 | 7.0 | 0.00 | 0.00 | 0.00 | 74 | 1010.4 |
| 20260502062548 | 44 | 297 | 0.0 | 7.0 | 0.00 | 0.00 | 0.00 | 73 | 1010.5 |
| 20260502062053 | 44 | 0 | 1.0 | 7.0 | 0.00 | 0.00 | 0.00 | 73 | 1010.5 |
| 20260502061554 | 44 | 298 | 0.0 | 5.0 | 0.00 | 0.00 | 0.00 | 73 | 1010.6 |
| 20260502061052 | 44 | 318 | 1.0 | 4.0 | 0.00 | 0.00 | 0.00 | 73 | 1010.6 |
| 20260502060549 | 44 | 294 | 0.0 | 3.0 | 0.00 | 0.00 | 0.00 | 73 | 1010.5 |
| 20260502060059 | 44 | 294 | 0.0 | 3.0 | 0.00 | 0.00 | 0.00 | 72 | 1010.5 |
| 20260502055553 | 44 | 294 | 0.0 | 4.0 | 0.00 | 0.00 | 0.00 | 72 | 1010.6 |
| 20260502055049 | 45 | 0 | 0.0 | 4.0 | 0.00 | 0.00 | 0.00 | 72 | 1010.6 |
| 20260502054556 | 45 | 294 | 0.0 | 2.0 | 0.00 | 0.00 | 0.00 | 72 | 1010.6 |
| 20260502054049 | 45 | 0 | 0.0 | 2.0 | 0.00 | 0.00 | 0.00 | 72 | 1010.6 |
| 20260502053551 | 45 | 0 | 0.0 | 5.0 | 0.00 | 0.00 | 0.00 | 71 | 1010.7 |
| 20260502053055 | 45 | 0 | 0.0 | 5.0 | 0.00 | 0.00 | 0.00 | 71 | 1010.6 |
| 20260502052551 | 45 | 294 | 0.0 | 5.0 | 0.00 | 0.00 | 0.00 | 70 | 1010.7 |
| 20260502052048 | 45 | 321 | 0.0 | 5.0 | 0.00 | 0.00 | 0.00 | 70 | 1010.7 |
| 20260502051654 | 45 | 0 | 1.0 | 5.0 | 0.00 | 0.00 | 0.00 | 70 | 1010.7 |
| 20260502051052 | 45 | 323 | 1.0 | 5.0 | 0.00 | 0.00 | 0.00 | 69 | 1010.7 |
| 20260502050550 | 45 | 324 | 0.0 | 5.0 | 0.00 | 0.00 | 0.00 | 68 | 1010.7 |
| 20260502050100 | 45 | 328 | 0.0 | 2.0 | 0.00 | 0.00 | 0.00 | 68 | 1010.7 |
| 20260502045552 | 45 | 0 | 0.0 | 2.0 | 0.00 | 0.00 | 0.00 | 68 | 1010.7 |
| 20260502045051 | 45 | 0 | 0.0 | 3.0 | 0.00 | 0.00 | 0.00 | 67 | 1010.7 |
| 20260502044606 | 45 | 328 | 0.0 | 5.0 | 0.00 | 0.00 | 0.00 | 67 | 1010.7 |
| 20260502044048 | 45 | 328 | 1.0 | 5.0 | 0.00 | 0.00 | 0.00 | 67 | 1010.8 |
| 20260502043548 | 45 | 0 | 0.0 | 5.0 | 0.00 | 0.00 | 0.00 | 67 | 1010.8 |
| 20260502043109 | 46 | 0 | 1.0 | 5.0 | 0.00 | 0.00 | 0.00 | 67 | 1010.8 |
| 20260502042551 | 46 | 327 | 0.0 | 5.0 | 0.00 | 0.00 | 0.00 | 66 | 1010.8 |
| 20260502042052 | 46 | 327 | 1.0 | 3.0 | 0.00 | 0.00 | 0.00 | 66 | 1010.8 |
| 20260502041558 | 46 | 0 | 0.0 | 5.0 | 0.00 | 0.00 | 0.00 | 66 | 1010.8 |
| 20260502041054 | 46 | 327 | 0.0 | 5.0 | 0.00 | 0.00 | 0.00 | 65 | 1010.8 |
| 20260502040550 | 46 | 327 | 0.0 | 4.0 | 0.00 | 0.00 | 0.00 | 64 | 1010.8 |
| 20260502040052 | 46 | 0 | 0.0 | 8.0 | 0.00 | 0.00 | 0.00 | 64 | 1010.8 |
| 20260502035551 | 46 | 324 | 1.0 | 8.0 | 0.00 | 0.00 | 0.00 | 63 | 1010.8 |
| 20260502035048 | 46 | 334 | 2.0 | 10.0 | 0.00 | 0.00 | 0.00 | 63 | 1010.8 |
| 20260502034553 | 47 | 319 | 2.0 | 10.0 | 0.00 | 0.00 | 0.00 | 62 | 1010.8 |
| 20260502034048 | 47 | 313 | 3.0 | 10.0 | 0.00 | 0.00 | 0.00 | 61 | 1010.9 |
| 20260502033551 | 47 | 309 | 3.0 | 10.0 | 0.00 | 0.00 | 0.00 | 60 | 1010.8 |
| 20260502033055 | 47 | 309 | 2.0 | 7.0 | 0.00 | 0.00 | 0.00 | 59 | 1010.8 |
| 20260502032551 | 47 | 308 | 1.0 | 7.0 | 0.00 | 0.00 | 0.00 | 58 | 1010.8 |
| 20260502032051 | 48 | 323 | 1.0 | 5.0 | 0.00 | 0.00 | 0.00 | 57 | 1010.8 |
| 20260502031608 | 48 | 0 | 0.0 | 4.0 | 0.00 | 0.00 | 0.00 | 57 | 1010.8 |
| 20260502031052 | 48 | 315 | 0.0 | 6.0 | 0.00 | 0.00 | 0.00 | 56 | 1010.8 |
| 20260502030554 | 48 | 315 | 1.0 | 6.0 | 0.00 | 0.00 | 0.00 | 56 | 1010.8 |
| 20260502030056 | 48 | 0 | 1.0 | 4.0 | 0.00 | 0.00 | 0.00 | 55 | 1010.8 |
| 20260502025548 | 48 | 0 | 0.0 | 4.0 | 0.00 | 0.00 | 0.00 | 55 | 1010.8 |
| 20260502025048 | 48 | 315 | 2.0 | 4.0 | 0.00 | 0.00 | 0.00 | 55 | 1010.8 |
| 20260502024554 | 48 | 315 | 0.0 | 3.0 | 0.00 | 0.00 | 0.00 | 55 | 1010.8 |
| 20260502024052 | 48 | 315 | 0.0 | 4.0 | 0.00 | 0.00 | 0.00 | 55 | 1010.8 |
| 20260502023552 | 48 | 0 | 1.0 | 4.0 | 0.00 | 0.00 | 0.00 | 55 | 1010.8 |
| 20260502023053 | 48 | 0 | 1.0 | 4.0 | 0.00 | 0.00 | 0.00 | 55 | 1010.8 |
| 20260502022553 | 48 | 315 | 0.0 | 5.0 | 0.00 | 0.00 | 0.00 | 56 | 1010.8 |
| 20260502022054 | 48 | 0 | 0.0 | 5.0 | 0.00 | 0.00 | 0.00 | 56 | 1010.8 |
| 20260502021552 | 48 | 315 | 1.0 | 5.0 | 0.00 | 0.00 | 0.00 | 55 | 1010.9 |
| 20260502021052 | 48 | 0 | 0.0 | 3.0 | 0.00 | 0.00 | 0.00 | 55 | 1010.9 |
| 20260502020551 | 48 | 0 | 0.0 | 3.0 | 0.00 | 0.00 | 0.00 | 54 | 1010.9 |
| 20260502020106 | 48 | 0 | 0.0 | 3.0 | 0.00 | 0.00 | 0.00 | 54 | 1010.9 |
| 20260502015555 | 48 | 0 | 0.0 | 3.0 | 0.00 | 0.00 | 0.00 | 55 | 1011.0 |
| 20260502015054 | 48 | 315 | 0.0 | 2.0 | 0.00 | 0.00 | 0.00 | 55 | 1011.0 |
| 20260502014550 | 48 | 0 | 0.0 | 2.0 | 0.00 | 0.00 | 0.00 | 55 | 1011.0 |
| 20260502014051 | 48 | 0 | 0.0 | 4.0 | 0.00 | 0.00 | 0.00 | 55 | 1011.1 |
| 20260502013550 | 48 | 0 | 0.0 | 4.0 | 0.00 | 0.00 | 0.00 | 54 | 1011.0 |
| 20260502013055 | 48 | 315 | 0.0 | 4.0 | 0.00 | 0.00 | 0.00 | 54 | 1011.0 |
| 20260502012552 | 48 | 315 | 0.0 | 5.0 | 0.00 | 0.00 | 0.00 | 54 | 1011.1 |
| 20260502012050 | 48 | 0 | 0.0 | 5.0 | 0.00 | 0.00 | 0.00 | 54 | 1011.1 |
| 20260502011553 | 48 | 315 | 0.0 | 3.0 | 0.00 | 0.00 | 0.00 | 54 | 1011.0 |
| 20260502011050 | 48 | 0 | 0.0 | 3.0 | 0.00 | 0.00 | 0.00 | 54 | 1011.0 |
| 20260502010552 | 48 | 0 | 0.0 | 3.0 | 0.00 | 0.00 | 0.00 | 54 | 1011.0 |
| 20260502010055 | 48 | 315 | 1.0 | 4.0 | 0.00 | 0.00 | 0.00 | 54 | 1011.0 |
| 20260502005549 | 48 | 0 | 0.0 | 4.0 | 0.00 | 0.00 | 0.00 | 54 | 1010.9 |
| 20260502005050 | 48 | 0 | 0.0 | 4.0 | 0.00 | 0.00 | 0.00 | 53 | 1010.9 |
| 20260502004558 | 48 | 0 | 0.0 | 4.0 | 0.00 | 0.00 | 0.00 | 53 | 1010.9 |
| 20260502004050 | 48 | 0 | 0.0 | 3.0 | 0.00 | 0.00 | 0.00 | 53 | 1010.9 |
| 20260502003552 | 49 | 0 | 0.0 | 4.0 | 0.00 | 0.00 | 0.00 | 53 | 1010.9 |
| 20260502003053 | 49 | 315 | 1.0 | 4.0 | 0.00 | 0.00 | 0.00 | 53 | 1010.8 |
| 20260502002550 | 49 | 0 | 0.0 | 4.0 | 0.00 | 0.00 | 0.00 | 53 | 1010.7 |
| 20260502002051 | 49 | 0 | 1.0 | 4.0 | 0.00 | 0.00 | 0.00 | 52 | 1010.7 |
| 20260502001551 | 49 | 0 | 1.0 | 5.0 | 0.00 | 0.00 | 0.00 | 52 | 1010.6 |
| 20260502001049 | 49 | 313 | 0.0 | 7.0 | 0.00 | 0.00 | 0.00 | 52 | 1010.6 |
| 20260502000549 | 49 | 313 | 1.0 | 7.0 | 0.00 | 0.00 | 0.00 | 51 | 1010.6 |
| 20260502000058 | 49 | 311 | 1.0 | 6.0 | 0.00 | 0.00 | 0.00 | 51 | 1010.5 |
| 20260501235549 | 49 | 316 | 1.0 | 7.0 | 0.00 | 0.00 | 0.00 | 51 | 1010.5 |
| 20260501235053 | 50 | 315 | 2.0 | 8.0 | 0.00 | 0.00 | 0.00 | 50 | 1010.4 |
| 20260501234556 | 50 | 301 | 1.0 | 8.0 | 0.00 | 0.00 | 0.00 | 50 | 1010.4 |
| 20260501234049 | 50 | 317 | 3.0 | 8.0 | 0.00 | 0.00 | 0.00 | 49 | 1010.4 |
| 20260501233551 | 50 | 336 | 0.0 | 9.0 | 0.00 | 0.00 | 0.00 | 50 | 1010.4 |
| 20260501233054 | 50 | 304 | 2.0 | 9.0 | 0.00 | 0.00 | 0.00 | 50 | 1010.3 |
| 20260501232551 | 50 | 333 | 2.0 | 7.0 | 0.00 | 0.00 | 0.00 | 50 | 1010.3 |
| 20260501232054 | 50 | 311 | 0.0 | 8.0 | 0.00 | 0.00 | 0.00 | 50 | 1010.3 |
| 20260501231600 | 50 | 301 | 2.0 | 9.0 | 0.00 | 0.00 | 0.00 | 49 | 1010.2 |
| 20260501231052 | 50 | 306 | 2.0 | 9.0 | 0.00 | 0.00 | 0.00 | 48 | 1010.2 |
| 20260501230552 | 50 | 311 | 3.0 | 9.0 | 0.00 | 0.00 | 0.00 | 48 | 1010.2 |
| 20260501230052 | 50 | 323 | 3.0 | 11.0 | 0.00 | 0.00 | 0.00 | 48 | 1010.1 |
| 20260501225552 | 50 | 283 | 2.0 | 11.0 | 0.00 | 0.00 | 0.00 | 49 | 1010.1 |
| 20260501225051 | 51 | 0 | 3.0 | 11.0 | 0.00 | 0.00 | 0.00 | 49 | 1010.2 |
| 20260501224554 | 51 | 305 | 1.0 | 9.0 | 0.00 | 0.00 | 0.00 | 49 | 1010.2 |
| 20260501224051 | 51 | 342 | 1.0 | 9.0 | 0.00 | 0.00 | 0.00 | 48 | 1010.2 |
| 20260501223550 | 51 | 288 | 2.0 | 9.0 | 0.00 | 0.00 | 0.00 | 47 | 1010.1 |
| 20260501223054 | 51 | 237 | 3.0 | 9.0 | 0.00 | 0.00 | 0.00 | 46 | 1010.2 |
| 20260501222551 | 51 | 240 | 3.0 | 7.0 | 0.00 | 0.00 | 0.00 | 47 | 1010.1 |
| 20260501222051 | 51 | 291 | 0.0 | 5.0 | 0.00 | 0.00 | 0.00 | 47 | 1010.1 |
| 20260501221552 | 51 | 291 | 1.0 | 6.0 | 0.00 | 0.00 | 0.00 | 47 | 1010.0 |
| 20260501221049 | 51 | 0 | 1.0 | 8.0 | 0.00 | 0.00 | 0.00 | 47 | 1010.1 |
| 20260501220551 | 51 | 268 | 1.0 | 11.0 | 0.00 | 0.00 | 0.00 | 48 | 1010.0 |
| 20260501220054 | 52 | 0 | 2.0 | 11.0 | 0.00 | 0.00 | 0.00 | 47 | 1010.1 |
| 20260501215548 | 52 | 285 | 2.0 | 11.0 | 0.00 | 0.00 | 0.00 | 48 | 1010.1 |
| 20260501215049 | 52 | 294 | 2.0 | 11.0 | 0.00 | 0.00 | 0.00 | 47 | 1010.0 |
| 20260501214602 | 52 | 276 | 2.0 | 9.0 | 0.00 | 0.00 | 0.00 | 46 | 1009.9 |
| 20260501214053 | 53 | 296 | 3.0 | 9.0 | 0.00 | 0.00 | 0.00 | 45 | 1010.0 |
| 20260501213551 | 53 | 261 | 2.0 | 7.0 | 0.00 | 0.00 | 0.00 | 45 | 1009.9 |
| 20260501213100 | 54 | 275 | 1.0 | 8.0 | 0.00 | 0.00 | 0.00 | 43 | 1009.8 |
| 20260501212554 | 54 | 276 | 2.0 | 8.0 | 0.00 | 0.00 | 0.00 | 41 | 1009.9 |
| 20260501212054 | 54 | 241 | 3.0 | 8.0 | 0.00 | 0.00 | 0.00 | 39 | 1009.7 |
| 20260501211552 | 54 | 254 | 4.0 | 8.0 | 0.00 | 0.00 | 0.00 | 39 | 1009.7 |
| 20260501211048 | 55 | 287 | 2.0 | 8.0 | 0.00 | 0.00 | 0.00 | 39 | 1009.7 |
| 20260501210551 | 55 | 293 | 2.0 | 10.0 | 0.00 | 0.00 | 0.00 | 39 | 1009.6 |